�������C�����ː����j�^�v���󋵏��
Date,Time,Cs137(Bq/L),Cs134(Bq/L),�S��(Bq/L)
2021/02/18,00:00,-,-,25
2021/02/18,00:10,-,-,24
2021/02/18,00:20,-,-,22
2021/02/18,00:30,-,-,17
2021/02/18,00:40,-,-,16
2021/02/18,00:50,-,-,17
2021/02/18,01:00,-,-,17
2021/02/18,01:10,-,-,17
2021/02/18,01:20,-,-,20
2021/02/18,01:30,-,-,21
2021/02/18,01:40,-,-,23
2021/02/18,01:50,-,-,20
2021/02/18,02:00,-,-,18
2021/02/18,02:10,-,-,19
2021/02/18,02:20,-,-,18
2021/02/18,02:30,-,-,20
2021/02/18,02:40,-,-,18
2021/02/18,02:50,-,-,18
2021/02/18,03:00,-,-,20
2021/02/18,03:10,-,-,18
2021/02/18,03:20,-,-,20
2021/02/18,03:30,-,-,17
2021/02/18,03:40,-,-,18
2021/02/18,03:50,-,-,20
2021/02/18,04:00,-,-,20
2021/02/18,04:10,-,-,22
2021/02/18,04:20,-,-,21
2021/02/18,04:30,-,-,20
2021/02/18,04:40,-,-,21
2021/02/18,04:50,-,-,19
2021/02/18,05:00,-,-,18
2021/02/18,05:10,-,-,19
2021/02/18,05:20,-,-,18
2021/02/18,05:30,-,-,19
2021/02/18,05:40,-,-,20
2021/02/18,05:50,-,-,18
2021/02/18,06:00,-,-,19
2021/02/18,06:10,-,-,16
2021/02/18,06:20,-,-,18
2021/02/18,06:30,-,-,18
2021/02/18,06:40,-,-,18
2021/02/18,06:50,-,-,20
2021/02/18,07:00,-,-,20
2021/02/18,07:10,-,-,18
2021/02/18,07:20,-,-,18
2021/02/18,07:30,-,-,18
2021/02/18,07:40,-,-,18
2021/02/18,07:50,-,-,16
2021/02/18,08:00,-,-,14
2021/02/18,08:10,-,-,18
2021/02/18,08:20,-,-,16
2021/02/18,08:30,-,-,16
2021/02/18,08:40,-,-,15
2021/02/18,08:50,-,-,14
2021/02/18,09:00,-,-,15
2021/02/18,09:10,-,-,14
2021/02/18,09:20,-,-,17
2021/02/18,09:30,-,-,18
2021/02/18,09:40,-,-,19
2021/02/18,09:50,-,-,23
2021/02/18,10:00,-,-,24
2021/02/18,10:10,-,-,25
2021/02/18,10:20,-,-,22
2021/02/18,10:30,-,-,22
2021/02/18,10:40,-,-,22
2021/02/18,10:50,-,-,22
2021/02/18,11:00,-,-,22
2021/02/18,11:10,-,-,21
2021/02/18,11:20,-,-,20
2021/02/18,11:30,-,-,19
2021/02/18,11:40,-,-,17
2021/02/18,11:50,-,-,17
2021/02/18,12:00,-,-,17
2021/02/18,12:10,-,-,18
2021/02/18,12:20,-,-,21
2021/02/18,12:30,-,-,22
2021/02/18,12:40,-,-,24
2021/02/18,12:50,-,-,23
2021/02/18,13:00,-,-,22
2021/02/18,13:10,-,-,21
2021/02/18,13:20,-,-,19
2021/02/18,13:30,-,-,16
2021/02/18,13:40,-,-,17
2021/02/18,13:50,-,-,15
2021/02/18,14:00,-,-,15
2021/02/18,14:10,-,-,14
2021/02/18,14:20,-,-,15
2021/02/18,14:30,-,-,17
2021/02/18,14:40,-,-,17
2021/02/18,14:50,-,-,17
2021/02/18,15:00,-,-,16
2021/02/18,15:10,-,-,17
2021/02/18,15:20,-,-,16
2021/02/18,15:30,-,-,14
2021/02/18,15:40,-,-,14
2021/02/18,15:50,-,-,15
2021/02/18,16:00,-,-,17
2021/02/18,16:10,-,-,17
2021/02/18,16:20,-,-,18
2021/02/18,16:30,-,-,17
2021/02/18,16:40,-,-,21
2021/02/18,16:50,-,-,19
2021/02/18,17:00,-,-,16
2021/02/18,17:10,-,-,16
2021/02/18,17:20,-,-,16
2021/02/18,17:30,-,-,16
2021/02/18,17:40,-,-,14
2021/02/18,17:50,-,-,15
2021/02/18,18:00,-,-,16
2021/02/18,18:10,-,-,16
2021/02/18,18:20,-,-,15
2021/02/18,18:30,-,-,13
2021/02/18,18:40,-,-,14
2021/02/18,18:50,-,-,15
2021/02/18,19:00,-,-,15
2021/02/18,19:10,-,-,17
2021/02/18,19:20,-,-,17
2021/02/18,19:30,-,-,19
2021/02/18,19:40,-,-,17
2021/02/18,19:50,-,-,16
2021/02/18,20:00,-,-,16
2021/02/18,20:10,-,-,11
2021/02/18,20:20,-,-,12
2021/02/18,20:30,-,-,9.7
2021/02/18,20:40,-,-,11
2021/02/18,20:50,-,-,10
2021/02/18,21:00,-,-,12
2021/02/18,21:10,-,-,16
2021/02/18,21:20,-,-,17
2021/02/18,21:30,-,-,17
2021/02/18,21:40,-,-,16
2021/02/18,21:50,-,-,19
2021/02/18,22:00,-,-,19
2021/02/18,22:10,-,-,19
2021/02/18,22:20,-,-,20
2021/02/18,22:30,-,-,20
2021/02/18,22:40,-,-,20
2021/02/18,22:50,-,-,17
2021/02/18,23:00,-,-,17
2021/02/18,23:10,-,-,17
2021/02/18,23:20,-,-,13
2021/02/18,23:30,-,-,13
2021/02/18,23:40,-,-,16
2021/02/18,23:50,-,-,18
